Location: Newark
(35.5300°N, 14.3000°E)
Time: 06:50:43
(UTC+00:00)

Explorer 11/Cluster Stage 4 - Pass Details

Date: 22 November 2019
Orbit: 467 x 1259 km, 28.8° (Epoch: 05 December)

Event Time Altitude Azimuth Distance (km) Brightness Sun altitude
Rises 17:32:20 0° 237° (WSW) 2,792 10.6 -20.1°
Reaches altitude 10° 17:34:38 10° 226° (SW) 1,995 9.5 -20.6°
Maximum altitude 17:38:45 31° 164° (SSE) 1,239 7.5 -21.4°
Enters shadow 17:39:58 28° 139° (SE) 1,373 7.5 -21.7°
